• In Hungary
  • List of Countries
  • For 7 days
  • Water Temperature
  • Satellite Maps
  • Weather Map
  • News
  • Weather Widgets
  • user-avatar
    Login

    Hourly Weather Puerto Pirámides

    Today, 11 December, Monday

    Time Temperature Precipitation Wind Pressure Humidity
    00:00 +15°C° 0 mm 7 mps 759 mmHg 59%
    01:00 +15°C° 0 mm 8 mps 759 mmHg 60%
    02:00 +15°C° 0 mm 8 mps 758 mmHg 60%
    03:00 +16°C° 0 mm 9 mps 758 mmHg 57%
    04:00 +16°C° 0 mm 9 mps 757 mmHg 54%
    05:00 +17°C° 0 mm 10 mps 757 mmHg 50%
    06:00 +18°C° 0 mm 10 mps 756 mmHg 44%
    07:00 +21°C° 0 mm 11 mps 756 mmHg 38%
    08:00 +23°C° 0 mm 12 mps 756 mmHg 32%
    09:00 +26°C° 0 mm 12 mps 755 mmHg 29%
    10:00 +27°C° 0 mm 12 mps 755 mmHg 27%
    11:00 +29°C° 0 mm 12 mps 754 mmHg 24%
    12:00 +31°C° 0 mm 12 mps 753 mmHg 23%
    13:00 +32°C° 0 mm 13 mps 752 mmHg 21%
    14:00 +33°C° 0 mm 13 mps 752 mmHg 20%
    15:00 +33°C° 0 mm 13 mps 751 mmHg 20%
    16:00 +33°C° 0 mm 13 mps 750 mmHg 20%
    17:00 +34°C° 0 mm 13 mps 749 mmHg 19%
    18:00 +33°C° 0 mm 13 mps 749 mmHg 20%
    19:00 +32°C° 0 mm 13 mps 748 mmHg 21%
    20:00 +31°C° 0 mm 13 mps 748 mmHg 22%
    21:00 +31°C° 0 mm 13 mps 748 mmHg 22%
    22:00 +31°C° 0 mm 13 mps 748 mmHg 22%
    23:00 +31°C° 0 mm 13 mps 748 mmHg 22%

    Tomorrow, 12 December, Tuesday

    Time Temperature Precipitation Wind Pressure Humidity
    00:00 +29°C° 0 mm 12 mps 748 mmHg 22%
    01:00 +29°C° 0 mm 12 mps 749 mmHg 23%
    02:00 +29°C° 0 mm 11 mps 749 mmHg 23%
    03:00 +27°C° 0 mm 11 mps 749 mmHg 28%
    04:00 +26°C° 0 mm 10 mps 750 mmHg 32%
    05:00 +24°C° 0 mm 10 mps 751 mmHg 37%
    06:00 +22°C° 0 mm 10 mps 752 mmHg 43%
    07:00 +21°C° 0 mm 10 mps 753 mmHg 49%
    08:00 +19°C° 0 mm 10 mps 754 mmHg 56%
    09:00 +19°C° 0 mm 9 mps 754 mmHg 51%
    10:00 +21°C° 0 mm 9 mps 755 mmHg 47%
    11:00 +22°C° 0 mm 9 mps 756 mmHg 42%
    12:00 +22°C° 0 mm 8 mps 756 mmHg 41%
    13:00 +22°C° 0 mm 8 mps 756 mmHg 40%
    14:00 +22°C° 0 mm 8 mps 757 mmHg 38%
    15:00 +21°C° 0 mm 7 mps 757 mmHg 40%
    16:00 +21°C° 0 mm 7 mps 757 mmHg 42%
    17:00 +20°C° 0 mm 7 mps 757 mmHg 44%
    18:00 +18°C° 0 mm 7 mps 757 mmHg 49%
    19:00 +17°C° 0 mm 8 mps 757 mmHg 54%
    20:00 +16°C° 0 mm 8 mps 757 mmHg 59%
    21:00 +15°C° 0 mm 8 mps 757 mmHg 62%
    22:00 +15°C° 0 mm 7 mps 757 mmHg 64%
    23:00 +15°C° 0 mm 7 mps 757 mmHg 67%

    Day after tomorrow, 13 December, Wednesday

    Time Temperature Precipitation Wind Pressure Humidity
    00:00 +15°C° 0 mm 6 mps 757 mmHg 68%
    01:00 +15°C° 0 mm 6 mps 757 mmHg 69%
    02:00 +15°C° 0 mm 6 mps 756 mmHg 71%
    03:00 +15°C° 0 mm 6 mps 756 mmHg 72%
    04:00 +15°C° 0 mm 5 mps 756 mmHg 74%
    05:00 +15°C° 0 mm 5 mps 756 mmHg 76%
    06:00 +16°C° 0 mm 5 mps 756 mmHg 68%
    07:00 +17°C° 0 mm 6 mps 756 mmHg 61%
    08:00 +20°C° 0 mm 7 mps 755 mmHg 53%
    09:00 +21°C° 0 mm 7 mps 755 mmHg 49%
    10:00 +22°C° 0 mm 7 mps 755 mmHg 45%
    11:00 +24°C° 0 mm 7 mps 754 mmHg 41%
    12:00 +26°C° 0 mm 6 mps 754 mmHg 39%
    13:00 +26°C° 0 mm 6 mps 753 mmHg 38%
    14:00 +27°C° 0 mm 5 mps 753 mmHg 36%
    15:00 +27°C° 0 mm 5 mps 753 mmHg 36%
    16:00 +28°C° 0 mm 5 mps 752 mmHg 35%
    17:00 +28°C° 0 mm 5 mps 752 mmHg 35%
    18:00 +27°C° 0 mm 6 mps 752 mmHg 39%
    19:00 +26°C° 0 mm 6 mps 752 mmHg 44%
    20:00 +23°C° 0 mm 6 mps 752 mmHg 48%
    21:00 +25°C° 0 mm 5 mps 752 mmHg 47%
    22:00 +25°C° 0 mm 5 mps 752 mmHg 46%
    23:00 +25°C° 0 mm 4 mps 753 mmHg 45%

    14 December, Thursday

    Time Temperature Precipitation Wind Pressure Humidity
    00:00 +25°C° 0 mm 4 mps 752 mmHg 41%
    01:00 +25°C° 0 mm 5 mps 752 mmHg 37%
    02:00 +26°C° 0 mm 5 mps 752 mmHg 33%
    03:00 +25°C° 0 mm 5 mps 752 mmHg 35%
    04:00 +23°C° 0 mm 6 mps 752 mmHg 37%
    05:00 +22°C° 0 mm 6 mps 752 mmHg 39%
    06:00 +23°C° 0 mm 7 mps 752 mmHg 35%
    07:00 +24°C° 0 mm 7 mps 752 mmHg 32%
    08:00 +26°C° 0 mm 8 mps 752 mmHg 29%
    09:00 +28°C° 0 mm 8 mps 752 mmHg 27%
    10:00 +29°C° 0 mm 9 mps 752 mmHg 25%
    11:00 +31°C° 0 mm 9 mps 751 mmHg 23%
    12:00 +32°C° 0 mm 10 mps 751 mmHg 21%
    13:00 +33°C° 0 mm 11 mps 751 mmHg 18%
    14:00 +33°C° 0 mm 12 mps 751 mmHg 16%
    15:00 +31°C° 0 mm 11 mps 751 mmHg 20%
    16:00 +27°C° 0 mm 11 mps 752 mmHg 23%
    17:00 +24°C° 0 mm 11 mps 753 mmHg 27%
    18:00 +22°C° 0 mm 10 mps 754 mmHg 28%
    19:00 +21°C° 0 mm 9 mps 754 mmHg 29%
    20:00 +18°C° 0 mm 8 mps 755 mmHg 29%
    21:00 +19°C° 0 mm 6 mps 756 mmHg 30%
    22:00 +17°C° 0 mm 5 mps 756 mmHg 31%
    23:00 +18°C° 0 mm 4 mps 757 mmHg 32%

    15 December, Friday

    Time Temperature Precipitation Wind Pressure Humidity
    00:00 +18°C° 0 mm 4 mps 757 mmHg 36%
    01:00 +17°C° 0 mm 5 mps 757 mmHg 40%
    02:00 +16°C° 0 mm 6 mps 756 mmHg 44%
    03:00 +16°C° 0 mm 6 mps 756 mmHg 46%
    04:00 +16°C° 0 mm 7 mps 756 mmHg 48%
    05:00 +16°C° 0 mm 7 mps 756 mmHg 50%
    06:00 +18°C° 0 mm 8 mps 756 mmHg 42%
    07:00 +20°C° 0 mm 8 mps 756 mmHg 34%
    08:00 +22°C° 0 mm 9 mps 756 mmHg 26%
    09:00 +23°C° 0 mm 9 mps 755 mmHg 24%
    10:00 +24°C° 0 mm 10 mps 754 mmHg 22%
    11:00 +26°C° 0 mm 10 mps 753 mmHg 20%
    12:00 +27°C° 0 mm 11 mps 751 mmHg 19%
    13:00 +29°C° 0 mm 11 mps 750 mmHg 18%
    14:00 +31°C° 0 mm 11 mps 749 mmHg 17%
    15:00 +31°C° 0 mm 12 mps 748 mmHg 18%
    16:00 +31°C° 0 mm 12 mps 746 mmHg 19%
    17:00 +31°C° 0 mm 12 mps 745 mmHg 20%
    18:00 +31°C° 0 mm 11 mps 744 mmHg 21%
    19:00 +31°C° 0 mm 11 mps 743 mmHg 23%
    20:00 +29°C° 0 mm 10 mps 743 mmHg 24%
    21:00 +29°C° 0 mm 10 mps 743 mmHg 22%
    22:00 +31°C° 0 mm 10 mps 743 mmHg 20%
    23:00 +31°C° 0 mm 10 mps 742 mmHg 19%

    16 December, Saturday

    Time Temperature Precipitation Wind Pressure Humidity
    00:00 +29°C° 0 mm 10 mps 742 mmHg 20%
    01:00 +28°C° 0 mm 10 mps 743 mmHg 22%
    02:00 +27°C° 0 mm 11 mps 743 mmHg 24%
    03:00 +23°C° 0 mm 12 mps 744 mmHg 25%
    04:00 +20°C° 0 mm 14 mps 745 mmHg 26%
    05:00 +16°C° 0 mm 16 mps 746 mmHg 27%
    06:00 +16°C° 0 mm 16 mps 747 mmHg 26%
    07:00 +16°C° 0 mm 17 mps 748 mmHg 25%
    08:00 +16°C° 0 mm 17 mps 750 mmHg 24%
    09:00 +16°C° 0 mm 16 mps 750 mmHg 23%
    10:00 +18°C° 0 mm 14 mps 751 mmHg 21%
    11:00 +19°C° 0 mm 13 mps 752 mmHg 20%
    12:00 +21°C° 0 mm 12 mps 753 mmHg 18%
    13:00 +22°C° 0 mm 11 mps 753 mmHg 17%
    14:00 +22°C° 0 mm 10 mps 754 mmHg 16%
    15:00 +23°C° 0 mm 9 mps 754 mmHg 15%
    16:00 +23°C° 0 mm 7 mps 755 mmHg 15%
    17:00 +23°C° 0 mm 6 mps 755 mmHg 15%
    18:00 +23°C° 0 mm 5 mps 755 mmHg 17%
    19:00 +22°C° 0 mm 5 mps 756 mmHg 19%
    20:00 +21°C° 0 mm 4 mps 756 mmHg 21%
    21:00 +20°C° 0 mm 5 mps 757 mmHg 27%
    22:00 +19°C° 0 mm 6 mps 757 mmHg 34%
    23:00 +17°C° 0 mm 6 mps 758 mmHg 41%
    Show more